#
# The Tor Project
#
# URL: https://metrics.torproject.org/networksize.csv?start=2012-01-01&end=2015-05-03
#
date,relays,bridges
2012-01-01,2454,784
2012-01-02,2499,802
2012-01-03,2520,818
2012-01-04,2528,819
2012-01-05,2516,815
2012-01-06,2515,817
2012-01-07,2315,804
2012-01-08,2435,718
2012-01-09,2433,663
2012-01-10,2452,702
2012-01-11,2327,768
2012-01-12,2461,829
2012-01-13,2524,823
2012-01-14,2562,818
2012-01-15,2577,816
2012-01-16,2560,822
2012-01-17,2475,836
2012-01-18,2594,845
2012-01-19,2587,841
2012-01-20,2638,840
2012-01-21,2689,838
2012-01-22,2705,854
2012-01-23,2557,861
2012-01-24,2575,877
2012-01-25,2584,880
2012-01-26,2586,878
2012-01-27,2627,879
2012-01-28,2651,873
2012-01-29,2665,866
2012-01-30,2631,833
2012-01-31,2628,847
2012-02-01,2668,851
2012-02-02,2682,851
2012-02-03,2701,839
2012-02-04,2761,839
2012-02-05,2804,869
2012-02-06,2770,860
2012-02-07,2744,875
2012-02-08,2749,871
2012-02-09,2766,872
2012-02-10,2776,880
2012-02-11,2839,914
2012-02-12,2880,1001
2012-02-13,2872,1046
2012-02-14,2871,1075
2012-02-15,2860,1071
2012-02-16,2872,1065
2012-02-17,2858,1070
2012-02-18,2886,1066
2012-02-19,2906,1067
2012-02-20,2878,1059
2012-02-21,2873,1078
2012-02-22,2891,1082
2012-02-23,2861,1062
2012-02-24,2861,1062
2012-02-25,2882,1068
2012-02-26,2896,1074
2012-02-27,2844,1085
2012-02-28,2865,1106
2012-02-29,2849,1090
2012-03-01,2869,1090
2012-03-02,2861,1078
2012-03-03,2887,1072
2012-03-04,2919,1077
2012-03-05,2894,1070
2012-03-06,2917,977
2012-03-07,2901,947
2012-03-08,2900,941
2012-03-09,2877,937
2012-03-10,2902,944
2012-03-11,2895,959
2012-03-12,2866,943
2012-03-13,2854,951
2012-03-14,2848,944
2012-03-15,2846,925
2012-03-16,2845,927
2012-03-17,2875,935
2012-03-18,2905,947
2012-03-19,2878,940
2012-03-20,2847,953
2012-03-21,2816,961
2012-03-22,2829,966
2012-03-23,2829,987
2012-03-24,2864,986
2012-03-25,2885,999
2012-03-26,2846,998
2012-03-27,2835,1008
2012-03-28,2833,1011
2012-03-29,2833,1007
2012-03-30,2828,1014
2012-03-31,2883,1022
2012-04-01,2909,1027
2012-04-02,2900,1025
2012-04-03,2900,1042
2012-04-04,2932,1054
2012-04-05,2927,1046
2012-04-06,2918,1047
2012-04-07,2929,1037
2012-04-08,2940,1033
2012-04-09,2935,1055
2012-04-10,2911,1061
2012-04-11,2903,1064
2012-04-12,2888,1052
2012-04-13,2905,1049
2012-04-14,2931,1044
2012-04-15,2932,1051
2012-04-16,2905,1061
2012-04-17,2875,1064
2012-04-18,2864,1069
2012-04-19,2876,1071
2012-04-20,2851,1064
2012-04-21,2872,1055
2012-04-22,2896,1070
2012-04-23,2877,1065
2012-04-24,2887,1078
2012-04-25,2904,970
2012-04-26,2910,930
2012-04-27,2906,929
2012-04-28,2927,691
2012-04-29,2920,883
2012-04-30,2927,919
2012-05-01,2977,940
2012-05-02,2977,923
2012-05-03,2973,926
2012-05-04,2972,928
2012-05-05,3008,928
2012-05-06,3017,932
2012-05-07,2970,942
2012-05-08,2937,951
2012-05-09,2951,949
2012-05-10,2956,964
2012-05-11,2946,964
2012-05-12,2970,965
2012-05-13,2985,962
2012-05-14,2963,958
2012-05-15,2945,964
2012-05-16,2961,966
2012-05-17,2981,961
2012-05-18,2924,976
2012-05-19,2899,969
2012-05-20,2911,967
2012-05-21,2867,979
2012-05-22,2861,981
2012-05-23,2869,974
2012-05-24,2864,968
2012-05-25,2869,975
2012-05-26,2889,976
2012-05-27,2883,980
2012-05-28,2888,993
2012-05-29,2870,991
2012-05-30,2875,989
2012-05-31,2882,996
2012-06-01,2900,990
2012-06-02,2899,987
2012-06-03,2923,981
2012-06-04,2932,981
2012-06-05,2934,992
2012-06-06,2941,990
2012-06-07,2932,986
2012-06-08,2924,988
2012-06-09,2920,974
2012-06-10,2944,977
2012-06-11,2941,982
2012-06-12,2943,993
2012-06-13,2930,981
2012-06-14,2909,968
2012-06-15,2915,979
2012-06-16,2945,989
2012-06-17,2953,972
2012-06-18,2946,952
2012-06-19,2941,961
2012-06-20,2952,972
2012-06-21,2949,980
2012-06-22,2958,978
2012-06-23,2966,984
2012-06-24,3013,1003
2012-06-25,2987,994
2012-06-26,2981,1000
2012-06-27,2981,1000
2012-06-28,2978,988
2012-06-29,2955,981
2012-06-30,2929,979
2012-07-01,2964,977
2012-07-02,2967,1002
2012-07-03,2982,1011
2012-07-04,2975,1011
2012-07-05,2978,991
2012-07-06,2996,990
2012-07-07,2986,975
2012-07-08,3000,971
2012-07-09,3003,982
2012-07-10,3002,993
2012-07-11,2968,985
2012-07-12,2970,992
2012-07-13,2988,985
2012-07-14,3012,983
2012-07-15,3032,985
2012-07-16,3036,986
2012-07-17,3017,1008
2012-07-18,3008,1007
2012-07-19,2999,1001
2012-07-20,3000,987
2012-07-21,3021,984
2012-07-22,3039,983
2012-07-23,3036,998
2012-07-24,3006,988
2012-07-25,3011,990
2012-07-26,3007,986
2012-07-27,3001,990
2012-07-28,3023,983
2012-07-29,3038,980
2012-07-30,3034,997
2012-07-31,3022,1009
2012-08-01,3040,1006
2012-08-02,3019,1012
2012-08-03,2978,1018
2012-08-04,2983,1006
2012-08-05,3014,1009
2012-08-06,3026,1027
2012-08-07,3039,1035
2012-08-08,3034,1040
2012-08-09,3043,1036
2012-08-10,3039,1036
2012-08-11,3059,1028
2012-08-12,3082,1023
2012-08-13,3079,1040
2012-08-14,3073,1051
2012-08-15,3052,1044
2012-08-16,3032,1033
2012-08-17,3025,1029
2012-08-18,3044,1030
2012-08-19,3034,1030
2012-08-20,3034,1035
2012-08-21,3045,1052
2012-08-22,3044,1056
2012-08-23,3060,1052
2012-08-24,3056,1033
2012-08-25,3054,1032
2012-08-26,3080,1037
2012-08-27,3041,1057
2012-08-28,3060,1063
2012-08-29,3058,1051
2012-08-30,3040,1056
2012-08-31,3062,1060
2012-09-01,3091,1062
2012-09-02,3087,1071
2012-09-03,3073,1066
2012-09-04,3073,1072
2012-09-05,3061,1062
2012-09-06,3041,1060
2012-09-07,3067,1059
2012-09-08,3082,1040
2012-09-09,3092,1053
2012-09-10,3093,1064
2012-09-11,3117,1069
2012-09-12,3093,1065
2012-09-13,3076,995
2012-09-14,3094,986
2012-09-15,3114,985
2012-09-16,3057,985
2012-09-17,2988,995
2012-09-18,2988,1011
2012-09-19,2967,1011
2012-09-20,2961,1014
2012-09-21,2951,1017
2012-09-22,2940,1017
2012-09-23,2944,1020
2012-09-24,2913,1026
2012-09-25,2893,1023
2012-09-26,2877,1014
2012-09-27,2868,1012
2012-09-28,2896,1016
2012-09-29,2916,1015
2012-09-30,2913,1017
2012-10-01,2921,1019
2012-10-02,2912,1035
2012-10-03,2952,1028
2012-10-04,2947,1021
2012-10-05,2950,1007
2012-10-06,2943,1005
2012-10-07,2933,1006
2012-10-08,2915,1014
2012-10-09,2923,1029
2012-10-10,2914,1035
2012-10-11,2894,1029
2012-10-12,2894,1021
2012-10-13,2916,1019
2012-10-14,2929,1022
2012-10-15,2937,1019
2012-10-16,2952,1033
2012-10-17,2960,1044
2012-10-18,2955,1038
2012-10-19,2964,1029
2012-10-20,2970,1036
2012-10-21,2966,1032
2012-10-22,2978,1046
2012-10-23,3000,1048
2012-10-24,2996,1045
2012-10-25,2991,1042
2012-10-26,2985,1044
2012-10-27,3004,1048
2012-10-28,2999,1041
2012-10-29,2958,1045
2012-10-30,2920,1028
2012-10-31,2925,1033
2012-11-01,2957,1059
2012-11-02,2975,1050
2012-11-03,3002,1048
2012-11-04,3003,1049
2012-11-05,2987,1061
2012-11-06,2968,1071
2012-11-07,2982,1067
2012-11-08,2973,1073
2012-11-09,2986,1060
2012-11-10,3015,1074
2012-11-11,3035,1069
2012-11-12,3008,1079
2012-11-13,3022,1068
2012-11-14,3132,1065
2012-11-15,3139,1065
2012-11-16,3066,1069
2012-11-17,3060,1065
2012-11-18,3051,1063
2012-11-19,3028,1067
2012-11-20,3024,1073
2012-11-21,3031,1069
2012-11-22,3011,1067
2012-11-23,2997,1078
2012-11-24,3024,1065
2012-11-25,3049,1058
2012-11-26,3043,1060
2012-11-27,3021,1065
2012-11-28,2988,1073
2012-11-29,3000,1059
2012-11-30,2998,1055
2012-12-01,3066,1074
2012-12-02,3096,1079
2012-12-03,3058,1077
2012-12-04,3049,1086
2012-12-05,3040,1091
2012-12-06,3036,1083
2012-12-07,3022,1083
2012-12-08,3035,1096
2012-12-09,3046,1092
2012-12-10,3024,1102
2012-12-11,2998,1104
2012-12-12,2986,1101
2012-12-13,2959,1103
2012-12-14,2941,1097
2012-12-15,2977,1100
2012-12-16,2984,1091
2012-12-17,2974,1105
2012-12-18,2961,1118
2012-12-19,2974,1100
2012-12-20,2962,1086
2012-12-21,2951,1084
2012-12-22,2925,1072
2012-12-23,2917,1060
2012-12-24,2892,1073
2012-12-25,2867,1078
2012-12-26,2874,1073
2012-12-27,2859,1063
2012-12-28,2936,1073
2012-12-29,2959,1080
2012-12-30,2969,1091
2012-12-31,2976,1107
2013-01-01,3008,1114
2013-01-02,3061,1129
2013-01-03,3063,1138
2013-01-04,3071,1138
2013-01-05,3063,1137
2013-01-06,3072,1131
2013-01-07,3065,1134
2013-01-08,3075,1138
2013-01-09,3059,1125
2013-01-10,3025,1126
2013-01-11,3045,1121
2013-01-12,3055,1113
2013-01-13,3103,1116
2013-01-14,3095,1124
2013-01-15,3073,1137
2013-01-16,3074,1138
2013-01-17,3073,1126
2013-01-18,3085,1125
2013-01-19,3104,1137
2013-01-20,3123,1150
2013-01-21,3119,1139
2013-01-22,3095,1140
2013-01-23,3066,1135
2013-01-24,3080,1144
2013-01-25,3071,1128
2013-01-26,3086,1138
2013-01-27,3098,1139
2013-01-28,3084,1140
2013-01-29,3102,1151
2013-01-30,3095,1127
2013-01-31,3100,1117
2013-02-01,3138,1128
2013-02-02,3189,1126
2013-02-03,3284,1124
2013-02-04,3273,1141
2013-02-05,3140,1158
2013-02-06,3123,1165
2013-02-07,3116,1163
2013-02-08,3126,1147
2013-02-09,3124,1149
2013-02-10,3134,1157
2013-02-11,3150,1177
2013-02-12,3145,1177
2013-02-13,3123,1182
2013-02-14,3121,1192
2013-02-15,3099,1195
2013-02-16,3107,1195
2013-02-17,3155,1187
2013-02-18,3133,1202
2013-02-19,3126,1207
2013-02-20,3141,1192
2013-02-21,3121,1196
2013-02-22,3142,1193
2013-02-23,3169,1216
2013-02-24,3181,1220
2013-02-25,3148,1215
2013-02-26,3143,1220
2013-02-27,3142,1218
2013-02-28,3152,1217
2013-03-01,3207,1224
2013-03-02,3235,1244
2013-03-03,3240,1237
2013-03-04,3233,1240
2013-03-05,3205,1270
2013-03-06,3166,1263
2013-03-07,3155,1249
2013-03-08,3164,1256
2013-03-09,3208,1272
2013-03-10,3210,1276
2013-03-11,3224,1269
2013-03-12,3239,1275
2013-03-13,3241,1299
2013-03-14,3219,1288
2013-03-15,3237,1298
2013-03-16,3264,1311
2013-03-17,3294,1323
2013-03-18,3275,1319
2013-03-19,3277,1321
2013-03-20,3275,1312
2013-03-21,3273,1301
2013-03-22,3289,1298
2013-03-23,3292,1322
2013-03-24,3290,1337
2013-03-25,3268,1331
2013-03-26,3232,1337
2013-03-27,3253,1322
2013-03-28,3260,1325
2013-03-29,3286,1324
2013-03-30,3280,1317
2013-03-31,3296,1316
2013-04-01,3353,1335
2013-04-02,3323,1349
2013-04-03,3343,1339
2013-04-04,3334,1336
2013-04-05,3315,1334
2013-04-06,3335,1350
2013-04-07,3332,1347
2013-04-08,3327,1339
2013-04-09,3310,1355
2013-04-10,3327,1343
2013-04-11,3339,1346
2013-04-12,3345,1345
2013-04-13,3388,1354
2013-04-14,3398,1360
2013-04-15,3327,1354
2013-04-16,3346,1350
2013-04-17,3347,1367
2013-04-18,3347,1428
2013-04-19,3389,1504
2013-04-20,3388,1580
2013-04-21,3399,1608
2013-04-22,3393,1607
2013-04-23,3408,1608
2013-04-24,3387,1611
2013-04-25,3391,1603
2013-04-26,3413,1598
2013-04-27,3429,1633
2013-04-28,3444,1623
2013-04-29,3413,1617
2013-04-30,3411,1637
2013-05-01,3492,1662
2013-05-02,3496,1647
2013-05-03,3479,1666
2013-05-04,3508,1653
2013-05-05,3497,1659
2013-05-06,3478,1667
2013-05-07,3487,1679
2013-05-08,3473,1677
2013-05-09,3489,1680
2013-05-10,3481,1674
2013-05-11,3538,1655
2013-05-12,3543,1649
2013-05-13,3506,1667
2013-05-14,3499,1690
2013-05-15,3462,1688
2013-05-16,3448,1700
2013-05-17,3467,1690
2013-05-18,3507,1720
2013-05-19,3484,1709
2013-05-20,3473,1720
2013-05-21,3473,1718
2013-05-22,3479,1701
2013-05-23,3465,1700
2013-05-24,3461,1685
2013-05-25,3489,1691
2013-05-26,3517,1698
2013-05-27,3485,1691
2013-05-28,3463,1709
2013-05-29,3492,1704
2013-05-30,3507,1716
2013-05-31,3491,1700
2013-06-01,3519,1706
2013-06-02,3541,1706
2013-06-03,3525,1704
2013-06-04,3539,1722
2013-06-05,3506,1721
2013-06-06,3478,1712
2013-06-07,3456,1705
2013-06-08,3529,1730
2013-06-09,3540,1763
2013-06-10,3585,1788
2013-06-11,3600,1788
2013-06-12,3620,1794
2013-06-13,3630,1799
2013-06-14,3670,1796
2013-06-15,3722,1807
2013-06-16,3734,1806
2013-06-17,3701,1798
2013-06-18,3714,1830
2013-06-19,3739,1825
2013-06-20,3731,1830
2013-06-21,3708,1840
2013-06-22,3755,1834
2013-06-23,3782,1838
2013-06-24,3798,1836
2013-06-25,3791,1852
2013-06-26,3800,1835
2013-06-27,3798,1850
2013-06-28,3794,1847
2013-06-29,3838,1831
2013-06-30,3854,1816
2013-07-01,3885,1845
2013-07-02,3881,1867
2013-07-03,3883,1859
2013-07-04,3895,1862
2013-07-05,3921,1845
2013-07-06,3904,1849
2013-07-07,3938,1856
2013-07-08,3899,1860
2013-07-09,3909,1872
2013-07-10,3918,1863
2013-07-11,3941,1866
2013-07-12,3955,1873
2013-07-13,3989,1877
2013-07-14,3978,1863
2013-07-15,3982,1857
2013-07-16,3953,1883
2013-07-17,3972,1899
2013-07-18,3968,1877
2013-07-19,3970,1880
2013-07-20,3973,1872
2013-07-21,4005,1873
2013-07-22,3998,1891
2013-07-23,3984,1902
2013-07-24,3991,1909
2013-07-25,3972,1901
2013-07-26,3970,1889
2013-07-27,4018,1891
2013-07-28,4052,1886
2013-07-29,4062,1901
2013-07-30,4068,1911
2013-07-31,4068,1924
2013-08-01,4136,1902
2013-08-02,4194,1896
2013-08-03,4219,1898
2013-08-04,4239,1909
2013-08-05,4213,1906
2013-08-06,4207,1927
2013-08-07,4188,1922
2013-08-08,4188,1916
2013-08-09,4195,1912
2013-08-10,4216,1918
2013-08-11,4231,1912
2013-08-12,4229,1939
2013-08-13,4229,1939
2013-08-14,4237,1936
2013-08-15,4249,1929
2013-08-16,4250,1930
2013-08-17,4286,1942
2013-08-18,4300,1928
2013-08-19,4297,1939
2013-08-20,4289,1959
2013-08-21,4317,1961
2013-08-22,4317,1960
2013-08-23,4314,1947
2013-08-24,4322,1942
2013-08-25,4334,1926
2013-08-26,4334,1909
2013-08-27,4353,1931
2013-08-28,4309,1914
2013-08-29,4279,1913
2013-08-30,4296,1932
2013-08-31,4318,1919
2013-09-01,4364,1950
2013-09-02,4305,1959
2013-09-03,4266,1954
2013-09-04,4277,1965
2013-09-05,4253,1983
2013-09-06,4231,1921
2013-09-07,4325,1891
2013-09-08,4358,1899
2013-09-09,4363,1891
2013-09-10,4350,1888
2013-09-11,4330,1877
2013-09-12,4317,1882
2013-09-13,4270,1888
2013-09-14,4295,1902
2013-09-15,4321,1910
2013-09-16,4282,1899
2013-09-17,4271,1906
2013-09-18,4277,1899
2013-09-19,4216,1890
2013-09-20,4161,1893
2013-09-21,4215,1915
2013-09-22,4242,1899
2013-09-23,4177,1897
2013-09-24,4158,1889
2013-09-25,4160,1891
2013-09-26,4146,1882
2013-09-27,4134,1880
2013-09-28,4175,1891
2013-09-29,3971,1902
2013-09-30,4101,1881
2013-10-01,4186,1911
2013-10-02,4204,1924
2013-10-03,4211,1917
2013-10-04,4231,1908
2013-10-05,4370,1925
2013-10-06,4403,1956
2013-10-07,4372,1951
2013-10-08,4388,1973
2013-10-09,4452,1958
2013-10-10,4460,1931
2013-10-11,4479,1928
2013-10-12,4522,1952
2013-10-13,4512,1959
2013-10-14,4499,1948
2013-10-15,4509,1957
2013-10-16,4516,1941
2013-10-17,4519,1941
2013-10-18,4507,1943
2013-10-19,4518,1956
2013-10-20,4546,1930
2013-10-21,4519,1926
2013-10-22,4508,1933
2013-10-23,4508,1941
2013-10-24,4501,1954
2013-10-25,4501,1957
2013-10-26,4538,1947
2013-10-27,4552,1958
2013-10-28,4531,1958
2013-10-29,4529,1989
2013-10-30,4490,1976
2013-10-31,4453,1970
2013-11-01,4559,1990
2013-11-02,4631,1998
2013-11-03,4633,1987
2013-11-04,4633,1986
2013-11-05,4596,1990
2013-11-06,4602,2005
2013-11-07,4619,1989
2013-11-08,4639,1986
2013-11-09,4640,2007
2013-11-10,4652,2000
2013-11-11,4627,1992
2013-11-12,4641,1999
2013-11-13,4629,1992
2013-11-14,4632,1993
2013-11-15,4642,1988
2013-11-16,4676,2034
2013-11-17,4682,2024
2013-11-18,4638,2029
2013-11-19,4652,2016
2013-11-20,4647,2019
2013-11-21,4641,2002
2013-11-22,4640,2012
2013-11-23,4666,2019
2013-11-24,4701,2001
2013-11-25,4671,2002
2013-11-26,4669,2007
2013-11-27,4653,2103
2013-11-28,4639,2110
2013-11-29,4646,2100
2013-11-30,4706,2121
2013-12-01,4813,2127
2013-12-02,4773,2111
2013-12-03,4753,2120
2013-12-04,4756,2132
2013-12-05,4740,2126
2013-12-06,4744,2129
2013-12-07,4775,2268
2013-12-08,4790,2285
2013-12-09,4749,2287
2013-12-10,4747,2293
2013-12-11,4745,2280
2013-12-12,4756,2255
2013-12-13,4742,2244
2013-12-14,4765,2274
2013-12-15,4833,2262
2013-12-16,4799,2243
2013-12-17,4794,2011
2013-12-18,4775,2271
2013-12-19,4746,2272
2013-12-20,4745,2245
2013-12-21,4758,2249
2013-12-22,4751,2248
2013-12-23,4673,2252
2013-12-24,4602,2232
2013-12-25,4561,2187
2013-12-26,4605,2206
2013-12-27,4661,2228
2013-12-28,4721,2228
2013-12-29,4768,2214
2013-12-30,4772,2250
2013-12-31,4750,2230
2014-01-01,4820,2201
2014-01-02,4843,2243
2014-01-03,4898,2254
2014-01-04,4973,2281
2014-01-05,4997,2279
2014-01-06,4974,2290
2014-01-07,5009,2321
2014-01-08,5052,2330
2014-01-09,5051,2322
2014-01-10,5029,2323
2014-01-11,5026,2328
2014-01-12,5069,2328
2014-01-13,5029,2333
2014-01-14,5035,2340
2014-01-15,5074,2317
2014-01-16,5067,2328
2014-01-17,5067,2334
2014-01-18,5144,2356
2014-01-19,5172,2373
2014-01-20,5092,2349
2014-01-21,5101,2378
2014-01-22,5121,2370
2014-01-23,5083,2367
2014-01-24,5032,2398
2014-01-25,5135,2427
2014-01-26,5151,2416
2014-01-27,5115,2408
2014-01-28,5104,2419
2014-01-29,5156,2426
2014-01-30,5171,2402
2014-01-31,5202,2386
2014-02-01,5296,2432
2014-02-02,5308,2432
2014-02-03,5220,2429
2014-02-04,5232,2468
2014-02-05,5219,2451
2014-02-06,5199,2436
2014-02-07,5200,2441
2014-02-08,5233,2469
2014-02-09,5256,2451
2014-02-10,5194,2508
2014-02-11,5173,2752
2014-02-12,5175,2745
2014-02-13,5161,2677
2014-02-14,5157,
2014-02-15,5227,2823
2014-02-16,5279,2785
2014-02-17,5232,2769
2014-02-18,5257,2790
2014-02-19,5239,2745
2014-02-20,5215,2916
2014-02-21,5218,2820
2014-02-22,5248,2991
2014-02-23,5228,2986
2014-02-24,5193,2974
2014-02-25,5189,2972
2014-02-26,5197,2832
2014-02-27,5195,2946
2014-02-28,5196,3002
2014-03-01,5294,3019
2014-03-02,5309,2985
2014-03-03,5242,2945
2014-03-04,5245,2979
2014-03-05,5225,2998
2014-03-06,5199,2944
2014-03-07,5231,2971
2014-03-08,5239,2991
2014-03-09,5223,3001
2014-03-10,5203,2966
2014-03-11,5202,2998
2014-03-12,5214,2970
2014-03-13,5199,2974
2014-03-14,5214,2860
2014-03-15,5262,2813
2014-03-16,5308,2819
2014-03-17,5280,2807
2014-03-18,5261,2794
2014-03-19,5261,2772
2014-03-20,5246,2777
2014-03-21,5265,2815
2014-03-22,5304,2856
2014-03-23,5358,2857
2014-03-24,5324,2805
2014-03-25,5407,2830
2014-03-26,5407,2864
2014-03-27,5398,2951
2014-03-28,5399,3296
2014-03-29,5420,3351
2014-03-30,5450,3346
2014-03-31,5415,3311
2014-04-01,5474,3304
2014-04-02,5454,3311
2014-04-03,5436,3313
2014-04-04,5462,3326
2014-04-05,5500,3548
2014-04-06,5507,3549
2014-04-07,5444,3538
2014-04-08,5222,3379
2014-04-09,5121,3314
2014-04-10,5169,3283
2014-04-11,5385,3299
2014-04-12,5414,3299
2014-04-13,5434,3336
2014-04-14,5383,3140
2014-04-15,5372,
2014-04-16,5341,
2014-04-17,5171,
2014-04-18,4382,
2014-04-19,4390,
2014-04-20,4440,
2014-04-21,4471,
2014-04-22,4485,772
2014-04-23,4493,2975
2014-04-24,4524,2998
2014-04-25,4533,3010
2014-04-26,4572,3043
2014-04-27,4594,3049
2014-04-28,4585,3011
2014-04-29,4611,3006
2014-04-30,4636,2998
2014-05-01,4725,3265
2014-05-02,4742,3241
2014-05-03,4643,3227
2014-05-04,4606,3240
2014-05-05,4623,3249
2014-05-06,4612,3277
2014-05-07,4627,3266
2014-05-08,4633,3282
2014-05-09,4618,3281
2014-05-10,4633,3299
2014-05-11,4674,3286
2014-05-12,4632,3270
2014-05-13,4629,3249
2014-05-14,4620,3250
2014-05-15,4626,3245
2014-05-16,4679,3160
2014-05-17,4695,3192
2014-05-18,4683,3198
2014-05-19,4683,3181
2014-05-20,4693,3180
2014-05-21,4718,3206
2014-05-22,4729,3177
2014-05-23,4731,3190
2014-05-24,4763,3207
2014-05-25,4802,3213
2014-05-26,4790,3210
2014-05-27,4795,3180
2014-05-28,4793,3186
2014-05-29,4800,3215
2014-05-30,4775,3189
2014-05-31,4787,3201
2014-06-01,4846,3233
2014-06-02,4830,3218
2014-06-03,4832,3188
2014-06-04,4850,3171
2014-06-05,4919,3165
2014-06-06,5177,3194
2014-06-07,5299,3217
2014-06-08,5368,3185
2014-06-09,5412,3220
2014-06-10,5426,3219
2014-06-11,5412,3210
2014-06-12,5419,3214
2014-06-13,5432,3191
2014-06-14,5468,3220
2014-06-15,5485,3239
2014-06-16,5516,3195
2014-06-17,5558,3210
2014-06-18,5557,3202
2014-06-19,5570,3221
2014-06-20,5569,3219
2014-06-21,5555,3237
2014-06-22,5554,3238
2014-06-23,5554,3225
2014-06-24,5575,3223
2014-06-25,5571,3224
2014-06-26,5599,3197
2014-06-27,5615,3199
2014-06-28,5611,3210
2014-06-29,5626,3226
2014-06-30,5544,3202
2014-07-01,5556,3200
2014-07-02,5589,3199
2014-07-03,5659,3184
2014-07-04,5777,3193
2014-07-05,5872,3233
2014-07-06,5924,3239
2014-07-07,5929,3211
2014-07-08,5887,3216
2014-07-09,5817,3206
2014-07-10,5823,3193
2014-07-11,5868,3343
2014-07-12,5879,3478
2014-07-13,5876,3733
2014-07-14,5879,3681
2014-07-15,5880,3885
2014-07-16,5898,3738
2014-07-17,5919,3724
2014-07-18,5899,3709
2014-07-19,5846,3721
2014-07-20,5851,3742
2014-07-21,5853,3757
2014-07-22,5851,3720
2014-07-23,5846,3712
2014-07-24,5846,3701
2014-07-25,5876,3745
2014-07-26,5919,3682
2014-07-27,5931,3531
2014-07-28,5923,3668
2014-07-29,5932,3659
2014-07-30,5937,3750
2014-07-31,5977,3736
2014-08-01,6066,3700
2014-08-02,6124,3693
2014-08-03,6090,3721
2014-08-04,6100,3682
2014-08-05,6090,3679
2014-08-06,6065,3671
2014-08-07,6050,3682
2014-08-08,6016,3665
2014-08-09,6031,3681
2014-08-10,6035,3678
2014-08-11,6027,3652
2014-08-12,6040,3602
2014-08-13,5998,3654
2014-08-14,5984,3637
2014-08-15,6005,3636
2014-08-16,5990,3639
2014-08-17,5999,3676
2014-08-18,6010,3574
2014-08-19,6008,3537
2014-08-20,6013,3649
2014-08-21,5996,3712
2014-08-22,6022,3693
2014-08-23,6046,3711
2014-08-24,6053,3697
2014-08-25,6055,3701
2014-08-26,6029,3704
2014-08-27,6019,3730
2014-08-28,6025,3701
2014-08-29,6016,3686
2014-08-30,6047,3693
2014-08-31,6049,3708
2014-09-01,6113,3668
2014-09-02,6153,3678
2014-09-03,6129,3668
2014-09-04,6177,3672
2014-09-05,6171,3664
2014-09-06,6178,3684
2014-09-07,6218,3688
2014-09-08,6199,3655
2014-09-09,6192,3649
2014-09-10,6153,3643
2014-09-11,6156,3649
2014-09-12,6162,3625
2014-09-13,6176,3656
2014-09-14,6206,3675
2014-09-15,6167,3651
2014-09-16,6164,3634
2014-09-17,6154,3629
2014-09-18,6185,3642
2014-09-19,6167,3639
2014-09-20,6199,3661
2014-09-21,6211,3539
2014-09-22,6190,3581
2014-09-23,6180,3624
2014-09-24,6158,3624
2014-09-25,6159,3628
2014-09-26,6176,3636
2014-09-27,6166,3640
2014-09-28,6173,3569
2014-09-29,6143,3611
2014-09-30,6197,3620
2014-10-01,6280,3622
2014-10-02,6300,3496
2014-10-03,6294,3419
2014-10-04,6344,3449
2014-10-05,6388,3495
2014-10-06,6309,3424
2014-10-07,6331,3429
2014-10-08,6359,3429
2014-10-09,6409,3405
2014-10-10,6442,3404
2014-10-11,6478,3429
2014-10-12,6484,3448
2014-10-13,6472,3432
2014-10-14,6476,3423
2014-10-15,6454,3393
2014-10-16,6428,3362
2014-10-17,6452,3404
2014-10-18,6493,3452
2014-10-19,6535,3465
2014-10-20,6528,3423
2014-10-21,6526,3352
2014-10-22,6545,3420
2014-10-23,6508,3435
2014-10-24,6483,3454
2014-10-25,6501,3668
2014-10-26,6506,3788
2014-10-27,6497,3784
2014-10-28,6515,3799
2014-10-29,6491,3791
2014-10-30,6492,3774
2014-10-31,6501,3684
2014-11-01,6565,3771
2014-11-02,6628,3833
2014-11-03,6553,3901
2014-11-04,6589,4020
2014-11-05,6589,3998
2014-11-06,6590,3978
2014-11-07,6569,3976
2014-11-08,6599,3997
2014-11-09,6620,4008
2014-11-10,6570,3910
2014-11-11,6590,3899
2014-11-12,6529,3888
2014-11-13,6532,3807
2014-11-14,6590,4030
2014-11-15,6623,4080
2014-11-16,6646,4115
2014-11-17,6631,4039
2014-11-18,6617,4004
2014-11-19,6591,3819
2014-11-20,6604,3995
2014-11-21,6677,4000
2014-11-22,6681,4023
2014-11-23,6688,4015
2014-11-24,6688,3967
2014-11-25,6679,3911
2014-11-26,6658,3776
2014-11-27,6644,3781
2014-11-28,6664,3880
2014-11-29,6686,4010
2014-11-30,6709,4008
2014-12-01,6747,3996
2014-12-02,6789,3910
2014-12-03,6741,4028
2014-12-04,6781,4036
2014-12-05,6792,4019
2014-12-06,6792,4031
2014-12-07,6778,4034
2014-12-08,6752,4036
2014-12-09,6761,3989
2014-12-10,6725,3990
2014-12-11,6694,3977
2014-12-12,6666,3901
2014-12-13,6671,3996
2014-12-14,6670,4028
2014-12-15,6591,3991
2014-12-16,6661,3984
2014-12-17,6645,3972
2014-12-18,6644,3980
2014-12-19,6639,3985
2014-12-20,6649,3995
2014-12-21,6612,4188
2014-12-22,6595,4175
2014-12-23,6699,4162
2014-12-24,6683,4119
2014-12-25,6682,4074
2014-12-26,7959,4091
2014-12-27,6733,4085
2014-12-28,6713,4104
2014-12-29,6720,4144
2014-12-30,6782,4126
2014-12-31,6744,4151
2015-01-01,6832,4159
2015-01-02,6919,4191
2015-01-03,6968,4179
2015-01-04,7053,4227
2015-01-05,7078,4175
2015-01-06,7092,4161
2015-01-07,7121,4152
2015-01-08,7153,4164
2015-01-09,7104,4171
2015-01-10,7063,4193
2015-01-11,7083,4189
2015-01-12,7019,4111
2015-01-13,6973,4099
2015-01-14,6966,4097
2015-01-15,6967,4091
2015-01-16,6981,3864
2015-01-17,7004,4209
2015-01-18,7022,4215
2015-01-19,7006,4176
2015-01-20,7026,4169
2015-01-21,6993,4160
2015-01-22,6964,4110
2015-01-23,6944,4119
2015-01-24,6941,4201
2015-01-25,6947,4215
2015-01-26,6895,4179
2015-01-27,6888,4205
2015-01-28,6880,4176
2015-01-29,6907,4168
2015-01-30,6925,4162
2015-01-31,6949,4215
2015-02-01,7022,4205
2015-02-02,6989,4180
2015-02-03,6961,4168
2015-02-04,7018,4209
2015-02-05,7023,4175
2015-02-06,7027,4179
2015-02-07,7050,4180
2015-02-08,7073,4197
2015-02-09,7025,4145
2015-02-10,7009,4141
2015-02-11,6990,4144
2015-02-12,6997,4132
2015-02-13,6996,4103
2015-02-14,7014,4131
2015-02-15,7013,4086
2015-02-16,6980,4092
2015-02-17,6969,4059
2015-02-18,6960,4086